DW5963 Weather Reports


time (UTC)temp
C
wind
direction
speed
KPH
gust
KPH
rain 1hr
cm
rain 24hr
cm
rain mn
cm
humidity
%
barometer
mb
20260508105029 1 360 3.2 0.0 0.00 0.00 0.00 79 1010.0
20260508104527 1 360 1.6 0.0 0.00 0.00 0.00 79 1009.9
20260508104027 1 360 0.0 0.0 0.00 0.00 0.00 79 1009.8
20260508103526 1 360 1.6 0.0 0.00 0.00 0.00 79 1009.8
20260508103026 1 360 3.2 0.0 0.00 0.00 0.00 79 1009.8
20260508102525 1 360 4.8 0.0 0.00 0.00 0.00 79 1009.8
20260508102025 1 360 6.4 0.0 0.00 0.00 0.00 78 1009.8
20260508101524 1 360 6.4 0.0 0.00 0.00 0.00 78 1009.7
20260508101025 1 360 4.8 0.0 0.00 0.00 0.00 75 1009.5
20260508100523 1 360 4.8 0.0 0.00 0.00 0.00 75 1009.5
20260508100022 1 360 4.8 0.0 0.00 0.00 0.00 73 1009.5
20260508095525 2 360 6.4 0.0 0.00 0.00 0.00 73 1009.5
20260508095022 2 360 6.4 0.0 0.00 0.00 0.00 72 1009.4
20260508094525 2 360 6.4 0.0 0.00 0.00 0.00 70 1009.3
20260508094019 2 360 4.8 0.0 0.00 0.00 0.00 69 1009.2
20260508093520 3 360 3.2 0.0 0.00 0.00 0.00 70 1009.2
20260508093023 3 360 1.6 0.0 0.00 0.00 0.00 69 1009.1
20260508092519 3 360 1.6 0.0 0.00 0.00 0.00 69 1009.1
20260508092019 3 360 1.6 0.0 0.00 0.00 0.00 68 1009.2
20260508091518 3 360 3.2 0.0 0.00 0.00 0.00 66 1009.1
20260508091018 3 360 4.8 0.0 0.00 0.00 0.00 65 1008.9
20260508090523 3 360 4.8 0.0 0.00 0.00 0.00 65 1008.9
20260508090018 4 360 4.8 0.0 0.00 0.00 0.00 63 1008.9
20260508085524 5 360 6.4 0.0 0.00 0.00 0.00 61 1008.9
20260508085017 5 360 9.7 0.0 0.00 0.00 0.00 61 1008.9
20260508084518 6 360 12.9 0.0 0.00 0.00 0.00 61 1008.9
20260508084017 6 360 12.9 0.0 0.00 0.00 0.00 63 1008.8
20260508083516 8 360 12.9 0.0 0.00 0.00 0.00 67 1008.7
20260508083046 8 360 14.5 0.0 0.00 0.00 0.00 68 1008.5
20260508082515 8 360 12.9 0.0 0.00 0.00 0.00 69 1008.4
20260508082020 8 360 9.7 0.0 0.00 0.00 0.00 70 1008.2
20260508081514 8 360 6.4 0.0 0.00 0.00 0.00 70 1008.0
20260508081114 7 360 4.8 0.0 0.00 0.00 0.00 70 1007.9
20260508080511 7 360 4.8 0.0 0.00 0.00 0.00 71 1008.0
20260508080010 6 360 1.6 0.0 0.00 0.00 0.00 66 1008.1
20260508075509 5 360 0.0 0.0 0.00 0.00 0.00 65 1008.1
20260508075007 5 360 0.0 0.0 0.00 0.00 0.00 65 1008.0
20260508074506 4 360 0.0 0.0 0.00 0.00 0.00 65 1008.1
20260508074007 3 360 1.6 0.0 0.00 0.00 0.00 66 1008.2
20260508073502 3 360 0.0 0.0 0.00 0.00 0.00 65 1008.2
20260508073003 2 360 0.0 0.0 0.00 0.00 0.00 63 1008.2
20260508072602 1 360 0.0 0.0 0.00 0.00 0.00 62 1008.2
20260508072100 1 360 1.6 0.0 0.00 0.00 0.00 61 1008.3
20260508071600 1 360 1.6 0.0 0.00 0.00 0.00 59 1008.3
20260508071059 1 360 0.0 0.0 0.00 0.00 0.00 59 1008.4
20260508065559 1 360 1.6 0.0 0.00 0.00 0.00 58 1008.6
20260508065056 1 360 0.0 0.0 0.00 0.00 0.00 58 1008.6
20260508064609 1 360 0.0 0.0 0.00 0.00 0.00 58 1008.7
20260508064055 1 360 0.0 0.0 0.00 0.00 0.00 59 1008.6
20260508063554 1 360 0.0 0.0 0.00 0.00 0.00 60 1008.8
20260508063052 0 360 0.0 0.0 0.00 0.00 0.00 59 1008.7
20260508062553 0 360 0.0 0.0 0.00 0.00 0.00 58 1008.8
20260508062052 1 360 0.0 0.0 0.00 0.00 0.00 56 1008.8
20260508061551 1 360 0.0 0.0 0.00 0.00 0.00 56 1008.8
20260508061051 1 360 0.0 0.0 0.00 0.00 0.00 56 1008.9
20260508060050 1 360 0.0 0.0 0.00 0.00 0.00 56 1009.1
20260508055552 1 360 0.0 0.0 0.00 0.00 0.00 56 1009.0
20260508055051 1 360 0.0 0.0 0.00 0.00 0.00 57 1009.1
20260508054555 1 360 0.0 0.0 0.00 0.00 0.00 57 1009.1
20260508054055 1 360 0.0 0.0 0.00 0.00 0.00 57 1009.1
20260508053550 1 360 0.0 0.0 0.00 0.00 0.00 56 1009.1
20260508053050 1 360 0.0 0.0 0.00 0.00 0.00 56 1009.2
20260508052550 1 360 0.0 0.0 0.00 0.00 0.00 55 1009.2
20260508052050 1 360 0.0 0.0 0.00 0.00 0.00 53 1009.2
20260508051550 2 360 0.0 0.0 0.00 0.00 0.00 52 1009.2
20260508051050 2 360 0.0 0.0 0.00 0.00 0.00 52 1009.2
20260508050052 2 360 0.0 0.0 0.00 0.00 0.00 52 1009.1
20260508045554 2 360 0.0 0.0 0.00 0.00 0.00 51 1009.2
20260508045054 2 360 0.0 0.0 0.00 0.00 0.00 49 1009.2
20260508044550 3 360 0.0 0.0 0.00 0.00 0.00 49 1009.2
20260508044052 3 360 0.0 0.0 0.00 0.00 0.00 50 1009.2
20260508043549 3 360 0.0 0.0 0.00 0.00 0.00 50 1009.2
20260508043050 3 360 0.0 0.0 0.00 0.00 0.00 48 1009.2
20260508042550 4 360 0.0 0.0 0.00 0.00 0.00 47 1009.2
20260508042051 5 360 0.0 0.0 0.00 0.00 0.00 45 1009.3
20260508041552 5 360 0.0 0.0 0.00 0.00 0.00 47 1009.3
20260508041050 5 360 0.0 0.0 0.00 0.00 0.00 47 1009.2
20260508040049 5 360 1.6 0.0 0.00 0.00 0.00 45 1009.4
20260508035550 6 360 1.6 0.0 0.00 0.00 0.00 44 1009.4
20260508035049 6 360 0.0 0.0 0.00 0.00 0.00 43 1009.4
20260508034554 7 360 0.0 0.0 0.00 0.00 0.00 44 1009.5
20260508034049 7 360 0.0 0.0 0.00 0.00 0.00 44 1009.6
20260508033549 6 360 1.6 0.0 0.00 0.00 0.00 44 1009.6
20260508033050 6 360 3.2 0.0 0.00 0.00 0.00 44 1009.6
20260508032548 6 360 3.2 0.0 0.00 0.00 0.00 45 1009.7
20260508032048 6 360 1.6 0.0 0.00 0.00 0.00 45 1009.7
20260508031548 6 360 1.6 0.0 0.00 0.00 0.00 45 1009.7
20260508031049 6 360 3.2 0.0 0.00 0.00 0.00 45 1009.7
20260508025548 6 360 1.6 0.0 0.00 0.00 0.00 41 1009.6
20260508025048 7 360 0.0 0.0 0.00 0.00 0.00 40 1009.5
20260508024555 8 360 0.0 0.0 0.00 0.00 0.00 40 1009.4
20260508024048 8 360 0.0 0.0 0.00 0.00 0.00 35 1009.3
20260508023547 9 360 0.0 0.0 0.00 0.00 0.00 35 1009.3
20260508023047 10 360 0.0 0.0 0.00 0.00 0.00 33 1009.2
20260508022547 10 360 0.0 0.0 0.00 0.00 0.00 31 1009.3
20260508022048 11 360 0.0 0.0 0.00 0.00 0.00 31 1009.2
20260508021547 12 360 0.0 0.0 0.00 0.00 0.00 30 1009.2
20260508021046 12 360 0.0 0.0 0.00 0.00 0.00 29 1009.1
20260508020049 13 360 0.0 0.0 0.00 0.00 0.00 27 1008.9
20260508015548 15 360 0.0 0.0 0.00 0.00 0.00 27 1009.0
20260508015048 15 360 0.0 0.0 0.00 0.00 0.00 27 1008.9
20260508014547 15 360 0.0 0.0 0.00 0.00 0.00 27 1009.1
20260508014048 16 360 0.0 0.0 0.00 0.00 0.00 27 1009.1
20260508013546 16 360 1.6 0.0 0.00 0.00 0.00 25 1009.1
20260508013046 16 360 1.6 0.0 0.00 0.00 0.00 25 1009.1
20260508012547 16 360 3.2 0.0 0.00 0.00 0.00 25 1009.1
20260508012049 16 360 4.8 0.0 0.00 0.00 0.00 25 1009.1
20260508011559 17 360 6.4 0.0 0.00 0.00 0.00 24 1009.1
20260508011045 17 360 4.8 0.0 0.00 0.00 0.00 24 1009.1
20260508010056 17 360 6.4 0.0 0.00 0.00 0.00 24 1009.2
20260508005544 17 360 8.0 0.0 0.00 0.00 0.00 24 1009.2
20260508005044 17 360 9.7 0.0 0.00 0.00 0.00 23 1009.3
20260508004555 17 360 11.3 0.0 0.00 0.00 0.00 23 1009.3
20260508004044 18 360 11.3 0.0 0.00 0.00 0.00 22 1009.3
20260508003544 18 360 11.3 0.0 0.00 0.00 0.00 23 1009.3
20260508003045 18 360 9.7 0.0 0.00 0.00 0.00 23 1009.3
20260508002544 18 360 8.0 0.0 0.00 0.00 0.00 22 1009.4
20260508002043 18 360 11.3 0.0 0.00 0.00 0.00 22 1009.4
20260508001545 18 360 11.3 0.0 0.00 0.00 0.00 22 1009.3
20260508001042 18 360 11.3 0.0 0.00 0.00 0.00 23 1009.3
20260508000042 18 360 12.9 0.0 0.00 0.00 0.00 22 1009.6
20260507235542 18 360 12.9 0.0 0.00 0.00 0.00 22 1009.6
20260507235042 18 360 14.5 0.0 0.00 0.00 0.00 22 1009.6
20260507234542 18 360 16.1 0.0 0.00 0.00 0.00 22 1009.6
20260507234041 18 360 14.5 0.0 0.00 0.00 0.00 22 1009.5
20260507233542 17 360 14.5 0.0 0.00 0.00 0.00 23 1009.5
20260507233042 18 360 11.3 0.0 0.00 0.00 0.00 22 1009.4
20260507232540 18 360 11.3 0.0 0.00 0.00 0.00 22 1009.4
20260507232040 18 360 11.3 0.0 0.00 0.00 0.00 21 1009.6
20260507231541 17 360 6.4 0.0 0.00 0.00 0.00 21 1009.8
20260507231038 17 360 4.8 0.0 0.00 0.00 0.00 20 1009.8
20260507230038 17 360 8.0 0.0 0.00 0.00 0.00 21 1009.8
20260507225538 17 360 12.9 0.0 0.00 0.00 0.00 21 1009.8
20260507225038 17 360 12.9 0.0 0.00 0.00 0.00 21 1009.8
20260507224544 17 360 11.3 0.0 0.00 0.00 0.00 21 1009.8
20260507224037 17 360 11.3 0.0 0.00 0.00 0.00 21 1009.9
20260507223541 17 360 6.4 0.0 0.00 0.00 0.00 21 1009.9
20260507223037 17 360 4.8 0.0 0.00 0.00 0.00 21 1009.9
20260507222539 17 360 9.7 0.0 0.00 0.00 0.00 21 1009.9
20260507222035 17 360 12.9 0.0 0.00 0.00 0.00 21 1010.0
20260507221538 17 360 11.3 0.0 0.00 0.00 0.00 22 1010.1
20260507221036 17 360 9.7 0.0 0.00 0.00 0.00 21 1010.2
20260507220036 17 360 11.3 0.0 0.00 0.00 0.00 21 1010.3
20260507215536 17 360 11.3 0.0 0.00 0.00 0.00 21 1010.4
20260507215036 17 360 11.3 0.0 0.00 0.00 0.00 21 1010.4
20260507214535 17 360 12.9 0.0 0.00 0.00 0.00 21 1010.4
20260507214034 17 360 16.1 0.0 0.00 0.00 0.00 20 1010.4
20260507213534 17 360 14.5 0.0 0.00 0.00 0.00 21 1010.5
20260507213033 17 360 12.9 0.0 0.00 0.00 0.00 20 1010.6
20260507212533 17 360 14.5 0.0 0.00 0.00 0.00 20 1010.6
20260507212032 17 360 11.3 0.0 0.00 0.00 0.00 20 1010.7
20260507211534 17 360 11.3 0.0 0.00 0.00 0.00 19 1010.8
20260507211032 17 360 12.9 0.0 0.00 0.00 0.00 19 1010.9
20260507210511 17 360 11.3 0.0 0.00 0.00 0.00 19 1010.9
20260507210011 17 360 9.7 0.0 0.00 0.00 0.00 19 1010.8
20260507205511 17 360 14.5 0.0 0.00 0.00 0.00 19 1011.0
20260507205010 17 360 14.5 0.0 0.00 0.00 0.00 19 1010.8
20260507204510 17 360 9.7 0.0 0.00 0.00 0.00 20 1010.9
20260507204010 17 360 9.7 0.0 0.00 0.00 0.00 20 1010.9
20260507203510 17 360 12.9 0.0 0.00 0.00 0.00 20 1011.0
20260507203059 17 360 11.3 0.0 0.00 0.00 0.00 20 1011.0
20260507202602 16 360 8.0 0.0 0.00 0.00 0.00 21 1011.0
20260507202059 17 360 8.0 0.0 0.00 0.00 0.00 20 1011.0
20260507201559 17 360 11.3 0.0 0.00 0.00 0.00 20 1011.0
20260507201058 17 360 12.9 0.0 0.00 0.00 0.00 20 1011.0
20260507200558 17 360 12.9 0.0 0.00 0.00 0.00 20 1011.0
20260507200057 17 360 11.3 0.0 0.00 0.00 0.00 20 1011.0
20260507195556 17 360 9.7 0.0 0.00 0.00 0.00 20 1011.0
20260507195057 17 360 11.3 0.0 0.00 0.00 0.00 20 1011.0
20260507194556 17 360 9.7 0.0 0.00 0.00 0.00 20 1011.0
20260507194054 16 360 6.4 0.0 0.00 0.00 0.00 20 1011.0
20260507193106 16 360 4.8 0.0 0.00 0.00 0.00 22 1011.1
20260507192552 16 360 8.0 0.0 0.00 0.00 0.00 21 1011.2
20260507192051 16 360 6.4 0.0 0.00 0.00 0.00 21 1011.2
20260507191551 16 360 8.0 0.0 0.00 0.00 0.00 21 1011.4
20260507191049 16 360 8.0 0.0 0.00 0.00 0.00 22 1011.3
20260507190548 16 360 6.4 0.0 0.00 0.00 0.00 23 1011.5
20260507190056 15 360 4.8 0.0 0.00 0.00 0.00 22 1011.5
20260507185547 16 360 6.4 0.0 0.00 0.00 0.00 22 1011.6
20260507185046 15 360 8.0 0.0 0.00 0.00 0.00 22 1011.7
20260507184545 15 360 9.7 0.0 0.00 0.00 0.00 22 1011.8
20260507184048 15 360 9.7 0.0 0.00 0.00 0.00 22 1011.9
20260507183049 15 360 8.0 0.0 0.00 0.00 0.00 23 1012.0
20260507182551 15 360 9.7 0.0 0.00 0.00 0.00 22 1012.1
20260507182047 15 360 9.7 0.0 0.00 0.00 0.00 23 1012.1
20260507181545 15 360 9.7 0.0 0.00 0.00 0.00 22 1012.3
20260507181044 15 360 8.0 0.0 0.00 0.00 0.00 22 1012.4
20260507180544 15 360 6.4 0.0 0.00 0.00 0.00 23 1012.4
20260507180050 15 360 4.8 0.0 0.00 0.00 0.00 23 1012.5
20260507175542 15 360 4.8 0.0 0.00 0.00 0.00 23 1012.4
20260507175040 14 360 4.8 0.0 0.00 0.00 0.00 24 1012.6
20260507174541 14 360 3.2 0.0 0.00 0.00 0.00 23 1012.5
20260507174041 14 360 4.8 0.0 0.00 0.00 0.00 23 1012.6
20260507173036 13 360 6.4 0.0 0.00 0.00 0.00 24 1012.7
20260507172538 13 360 6.4 0.0 0.00 0.00 0.00 23 1012.7
20260507172035 14 360 4.8 0.0 0.00 0.00 0.00 23 1012.7
20260507171534 13 360 4.8 0.0 0.00 0.00 0.00 24 1012.7
20260507171034 13 360 3.2 0.0 0.00 0.00 0.00 24 1012.8
20260507170532 13 360 4.8 0.0 0.00 0.00 0.00 24 1012.7
20260507170034 13 360 4.8 0.0 0.00 0.00 0.00 24 1012.8
20260507165530 12 360 3.2 0.0 0.00 0.00 0.00 24 1012.9
20260507165034 12 360 3.2 0.0 0.00 0.00 0.00 24 1012.9
20260507164531 12 360 4.8 0.0 0.00 0.00 0.00 24 1012.9
20260507164033 12 360 3.2 0.0 0.00 0.00 0.00 24 1013.0
20260507163031 12 360 4.8 0.0 0.00 0.00 0.00 24 1013.0
20260507162529 12 360 6.4 0.0 0.00 0.00 0.00 24 1013.1
20260507162028 12 360 6.4 0.0 0.00 0.00 0.00 25 1013.1
20260507161528 12 360 6.4 0.0 0.00 0.00 0.00 24 1013.1
20260507161027 12 360 4.8 0.0 0.00 0.00 0.00 25 1013.2
20260507160528 11 360 4.8 0.0 0.00 0.00 0.00 26 1013.2
20260507160025 11 360 4.8 0.0 0.00 0.00 0.00 25 1013.2
20260507155525 11 360 4.8 0.0 0.00 0.00 0.00 27 1013.2
20260507155024 11 360 4.8 0.0 0.00 0.00 0.00 28 1013.2
20260507154523 11 360 4.8 0.0 0.00 0.00 0.00 28 1013.3
20260507154022 11 360 4.8 0.0 0.00 0.00 0.00 33 1013.2
20260507153020 10 360 4.8 0.0 0.00 0.00 0.00 34 1013.2
20260507152518 10 360 6.4 0.0 0.00 0.00 0.00 37 1013.1
20260507152018 10 360 4.8 0.0 0.00 0.00 0.00 38 1013.2
20260507151517 9 360 4.8 0.0 0.00 0.00 0.00 38 1013.2
20260507151015 9 360 4.8 0.0 0.00 0.00 0.00 38 1013.2
20260507150517 9 360 4.8 0.0 0.00 0.00 0.00 38 1013.3
20260507150013 8 360 3.2 0.0 0.00 0.00 0.00 39 1013.4
20260507145512 8 360 3.2 0.0 0.00 0.00 0.00 39 1013.4
20260507145011 8 360 3.2 0.0 0.00 0.00 0.00 39 1013.5
20260507144509 8 360 1.6 0.0 0.00 0.00 0.00 39 1013.6
20260507144008 7 360 1.6 0.0 0.00 0.00 0.00 41 1013.6
20260507143005 7 360 1.6 0.0 0.00 0.00 0.00 41 1013.6
20260507142504 6 360 1.6 0.0 0.00 0.00 0.00 42 1013.6
20260507142006 6 360 1.6 0.0 0.00 0.00 0.00 44 1013.6
20260507141502 6 360 1.6 0.0 0.00 0.00 0.00 45 1013.6
20260507141002 6 360 1.6 0.0 0.00 0.00 0.00 45 1013.6
20260507140600 6 360 1.6 0.0 0.00 0.00 0.00 46 1013.6
20260507140122 5 360 0.0 0.0 0.00 0.00 0.00 48 1013.5
20260507135557 5 360 0.0 0.0 0.00 0.00 0.00 50 1013.5
20260507135055 4 360 1.6 0.0 0.00 0.00 0.00 50 1013.6
20260507134555 3 360 1.6 0.0 0.00 0.00 0.00 49 1013.5
20260507134054 3 360 0.0 0.0 0.00 0.00 0.00 51 1013.5
20260507133656 3 360 0.0 0.0 0.00 0.00 0.00 54 1013.5
20260507133053 2 360 0.0 0.0 0.00 0.00 0.00 55 1013.5
20260507132651 2 360 0.0 0.0 0.00 0.00 0.00 56 1013.5
20260507132050 2 360 0.0 0.0 0.00 0.00 0.00 57 1013.6
20260507131601 1 360 0.0 0.0 0.00 0.00 0.00 59 1013.5
20260507131052 1 360 0.0 0.0 0.00 0.00 0.00 61 1013.6
20260507130546 0 360 0.0 0.0 0.00 0.00 0.00 64 1013.6
20260507130051 0 360 0.0 0.0 0.00 0.00 0.00 66 1013.7
20260507125544 -1 360 0.0 0.0 0.00 0.00 0.00 65 1013.7
20260507125042 -1 360 0.0 0.0 0.00 0.00 0.00 66 1013.8
20260507124552 -1 360 0.0 0.0 0.00 0.00 0.00 68 1013.6
20260507124040 -2 360 0.0 0.0 0.00 0.00 0.00 70 1013.6
20260507123639 -2 360 0.0 0.0 0.00 0.00 0.00 71 1013.5
20260507123052 -3 360 0.0 0.0 0.00 0.00 0.00 71 1013.5
20260507122640 -3 360 0.0 0.0 0.00 0.00 0.00 72 1013.4
20260507122036 -4 360 0.0 0.0 0.00 0.00 0.00 72 1013.3
20260507121541 -5 360 0.0 0.0 0.00 0.00 0.00 73 1013.3
20260507121033 -5 360 1.6 0.0 0.00 0.00 0.00 73 1013.2
20260507120533 -5 360 3.2 0.0 0.00 0.00 0.00 73 1013.2
20260507120032 -6 360 3.2 0.0 0.00 0.00 0.00 72 1013.3
20260507115533 -6 360 3.2 0.0 0.00 0.00 0.00 73 1013.2
20260507115031 -6 360 3.2 0.0 0.00 0.00 0.00 73 1013.3
20260507114531 -7 360 3.2 0.0 0.00 0.00 0.00 73 1013.2
20260507114031 -7 360 3.2 0.0 0.00 0.00 0.00 72 1013.2
20260507113631 -7 360 3.2 0.0 0.00 0.00 0.00 71 1013.1
20260507113035 -7 360 1.6 0.0 0.00 0.00 0.00 70 1013.1
20260507112532 -7 360 1.6 0.0 0.00 0.00 0.00 70 1013.2
20260507112031 -7 360 1.6 0.0 0.00 0.00 0.00 71 1013.2
20260507111532 -7 360 3.2 0.0 0.00 0.00 0.00 70 1013.2
20260507111030 -7 360 3.2 0.0 0.00 0.00 0.00 69 1013.1
20260507110530 -7 360 3.2 0.0 0.00 0.00 0.00 69 1013.3
20260507110029 -7 360 3.2 0.0 0.00 0.00 0.00 69 1013.3
20260507105528 -7 360 3.2 0.0 0.00 0.00 0.00 70 1013.0